Regional Weather Roundup
Issued by NWS Upton, NY

Current Version | Previous Version | Text Only | Print | Product List | Glossary On
Versions: 1 2 3 4 5 6 7 8 9 10 11 12 13 14 15 16 17 18 19 20 21 22 23 24 25 26 27 28 29 30 31 32 33 34 35 36 37 38 39 40 41 42 43 44 45 46 47 48 49 50
000
ASUS41 KOKX 221105
RWROKX

REGIONAL WEATHER ROUNDUP
NATIONAL WEATHER SERVICE NEW YORK NY
600 AM EST MON DEC 22 2014

NOTE: "FAIR" INDICATES FEW OR NO CLOUDS BELOW 12,000 FEET WITH NO
SIGNIFICANT WEATHER AND/OR OBSTRUCTIONS TO VISIBILITY.

NYZ071-072-176-178-NJZ106-104-221200-
NEW YORK CITY METRO AREA


CITY           SKY/WX    TMP DP  RH WIND       PRES   REMARKS
CENTRAL PARK   CLOUDY    36  31  82 N5        30.33F WCI  32
LAGUARDIA APRT CLOUDY    36  31  82 N6        30.32S WCI  31
KENNEDY INTL   CLOUDY    38  33  82 N6        30.33S WCI  33
NEWARK/LIBERTY CLOUDY    35  30  82 N8        30.32S WCI  29
BRNX BOT. GARD   N/A     34  32  93 N1        30.33F
TETERBORO      CLOUDY    35  30  82 N5        30.32S WCI  31
$$

NYZ177-179-078>081-221200-
LONG ISLAND NEW YORK

CITY           SKY/WX    TMP DP  RH WIND       PRES   REMARKS
FARMINGDALE    CLOUDY    38  34  85 NE6       30.31S WCI  33
ISLIP          CLOUDY    38  34  85 NE12      30.29S WCI  30
SHIRLEY        CLOUDY    38  35  89 N7        30.32S WCI  33
WESTHAMPTON    LGT RAIN  38  35  89 N7        30.33R FOG     WCI  33
MONTAUK POINT    N/A     40  36  86 NE10      30.32S WCI  33
$$

NYZ052-065-067-221200-
HUDSON VALLEY

CITY           SKY/WX    TMP DP  RH WIND       PRES   REMARKS
WHITE PLAINS   CLOUDY    34  31  88 N6        30.29F WCI  29
NEWBURGH       CLOUDY    30  30 100 VRB5      30.33S FOG     WCI  25
MONTGOMERY     CLOUDY    31  28  89 NE5       30.31F FOG     WCI  26
POUGHKEEPSIE   CLOUDY    32  27  81 N3        30.34S
ALBANY         LGT SNOW  29  25  85 N5        30.37R FOG     WCI  24
$$

NJZ001-105-106-008-010-013-015-019>022-104-221200-
NEW JERSEY

CITY           SKY/WX    TMP DP  RH WIND       PRES   REMARKS
NEWARK/LIBERTY CLOUDY    35  30  82 N8        30.32S WCI  29
TETERBORO      CLOUDY    35  30  82 N5        30.32S WCI  31
CALDWELL       CLOUDY    33  29  85 NE3       30.32F
MORRISTOWN     CLOUDY    36  30  80 CALM      30.31F
SOMERVILLE     CLOUDY    35  29  78 CALM      30.29F
SUSSEX         CLOUDY    30  27  88 NE9       30.30F FOG     WCI  22
ANDOVER          N/A     30  27  88 NE3       30.30F
TRENTON        CLOUDY    34  28  79 NE6       30.30S WCI  29
MILLVILLE      CLOUDY    24  22  91 CALM      30.31R
ATLANTIC CITY  CLOUDY    26  22  84 CALM      30.31R
WRIGHTSTOWN    CLOUDY    34  29  83 N6        30.28S WCI  29
TOMS RIVER     CLOUDY    34  30  86 N6        30.30F WCI  29
BELMAR         CLOUDY    36  27  69 N7        30.29F WCI  30
$$

PAZ047>061-062-071-221200-
EASTERN PENNSYLVANIA

CITY           SKY/WX    TMP DP  RH WIND       PRES   REMARKS
PHILADELPHIA   CLOUDY    30  23  75 N7        30.31F WCI  23
ALLENTOWN      CLOUDY    31  25  78 CALM      30.30S
SCRANTON       CLOUDY    31  23  72 CALM      30.26S
$$

CTZ002-004>006-009-010-012-RIZ004-006-007-MAZ004-011-015-221200-
SOUTHERN NEW ENGLAND
 IN CT

CITY           SKY/WX    TMP DP  RH WIND       PRES   REMARKS
BRADLEY INTL   CLOUDY    34  30  85 N8        30.34S WCI  27
HARTFORD       CLOUDY    34  30  85 N8        30.36R WCI  27
DANBURY        CLOUDY    33  29  85 VRB3      30.33S
WTRBRY/OXFORD  FLURRIES  34  27  75 NE5       30.31S WCI  30
BRIDGEPORT     CLOUDY    36  33  89 NE9       30.33S WCI  29
MERIDEN        CLOUDY    34  30  85 N6        30.35R WCI  29
NEW HAVEN      CLOUDY    37  32  82 N8        30.33R WCI  31
CHESTER        CLOUDY    34  32  93 N6        30.33R WCI  29
GROTON         CLOUDY    34  32  92 N8        30.33R WCI  27
WILLIMANTIC    CLOUDY    35  29  78 NE6       30.35R WCI  30

 IN RI

CITY           SKY/WX    TMP DP  RH WIND       PRES   REMARKS
PROVIDENCE     CLOUDY    35  30  82 N7        30.37R WCI  29
BLOCK ISLAND   PTCLDY    37  34  87 NE8       30.33R WCI  31
WESTERLY       CLOUDY    36  32  85 NE6       30.34R WCI  31

 IN MA

CITY           SKY/WX    TMP DP  RH WIND       PRES   REMARKS
BOSTON         MOCLDY    34  27  75 NW6       30.38R WCI  29
WORCESTER      CLOUDY    30  25  81 NE7       30.33R WCI  23
WESTFIELD      CLOUDY    33  30  88 N5        30.35S WCI  29
PROVINCETOWN   CLOUDY    41  36  81 N7        30.35R
NANTUCKET      MOCLDY    38  36  92 NE6       30.32R WCI  33
$$

ANZ330-335-338-340-345-350-353-355-221200-
COASTAL MARINE OBSERVATIONS


STATION/POSITION TIME  SKY/WX   TEMP    WIND        PRES    VSBY  WAVE
                                AIR SEA DIR/SP/G                  HT/PER
                 (UTC)          (F)     (DEG/KT/KT) (MB)    (MI)  (FT/S)
NY HARB ENTRANCE 1100            39 46   10/  6/ 10 1026.5          2/ 7
4S FIRE IS       1100               47                N/A           3/ 6
20S FIRE ISLAND  1000            42 49              1026.0          3/ 5
23SW MTP         1100                                 N/A           4/ 4
HUDSON CANYON    1100            45 55  330/  2/  6 1025.1          2/ 5
EXECUTION ROCKS  1100            37 41   40/  8/ 12   N/A
WESTERN LI SOUND 1100            37      40/  8/ 10   N/A           1
CENTRAL LI SOUND 1000            37 44   40/ 10/ 12   N/A           1/ 3
EASTERN LI SOUND NOT AVBL
ROBBINS REEF     1100            35     290/  5/  6 1025.4
$$


>>>>>>>>>>>>>>>>>>>>>>>>>>>> KEY <<<<<<<<<<<<<<<<<<<<<<<<<<<
>                                                          <
>     SKY/WX - SKY CONDITION/PRESENT WEATHER               <
>     TMP    - TEMPERATURE IN FAHRENHEIT                   <
>     DP     - DEWPOINT IN FAHRENHEIT                      <
>     RH     - RELATIVE HUMIDITY IN PERCENT                <
>     WIND   - DIRECTION AND SPEED IN MPH                  <
>     PRES   - MEAN SEA LEVEL PRESSURE IN INCHES OF HG     <
>     WCI    - WIND CHILL INDEX                            <
>     VSB    - VISIBILITY IN MILES                         <
>     HX     - HEAT INDEX                                  <
>     TC     - TEMPERATURE IN CELSIUS                      <
>     VRB    - VARIABLE WIND DIRECTION                     <
>                                                          <
>>>>>>>>>>>>>>>>>>>>>>>>>>>> KEY <<<<<<<<<<<<<<<<<<<<<<<<<<<





USA.gov is the U.S. government's official web portal to all federal, state and local government web resources and services.